Regional Weather Roundup
Issued by NWS

Home | Current Version | Previous Version | Text Only | Print | Product List | Glossary Off
Versions: 1 2 3 4 5 6 7 8 9 10 11 12 13 14 15 16 17 18 19 20 21 22 23 24 25 26 27 28 29 30 31 32 33 34 35 36 37 38 39 40 41 42 43 44 45 46 47 48 49 50

000
ASUS43 KOAX 142202
RWRNE

WEATHER ROUNDUP FOR NEBRASKA
NATIONAL WEATHER SERVICE OMAHA NE
500 PM CDT SUN SEP 14 2014

NOTES: SATELLITE DATA IS BEING USED TO AUGMENT CLOUD COVER ABOVE
       12000 FEET.
       "FAIR" INDICATES FEW OR NO CLOUDS BELOW 12,000 FEET WITH NO
       SIGNIFICANT WEATHER AND/OR OBSTRUCTIONS TO VISIBILITY.

  * THESE STATIONS DO NOT REPORT WEATHER SUCH AS RAIN...SNOW OR FOG.

NEZ001>004-019>022-054>056-142300-
NEBRASKA PANHANDLE

CITY           SKY/WX    TMP DP  RH WIND       PRES   REMARKS
SCOTTSBLUFF    MOSUNNY   70  51  51 NE12      30.01S
ALLIANCE       SUNNY     72  54  53 N9        30.00F
CHADRON        MOSUNNY   66  47  50 NE13      30.04F
KIMBALL        PTSUNNY   74  48  40 SE9       30.00S
SIDNEY         MOSUNNY   76  51  41 MISG      30.02R
$$

NEZ057>060-069>072-079>082-142300-
SOUTHWEST NEBRASKA

CITY           SKY/WX    TMP DP  RH WIND       PRES   REMARKS
NORTH PLATTE   MOSUNNY   71  55  56 S12G20    30.00S
IMPERIAL       SUNNY     77  55  46 S18       29.97F
LEXINGTON      PTSUNNY   71  56  59 SE16G24   30.01F
MCCOOK         MOSUNNY   75  57  53 SE14G22   29.98F
OGALLALA       MOSUNNY   77  57  50 S8        29.97F
$$

NEZ005>010-023>029-035>040-094-142300-
NORTH CENTRAL NEBRASKA

CITY           SKY/WX    TMP DP  RH WIND       PRES   REMARKS
VALENTINE      CLOUDY    63  45  51 E12       30.06F
AINSWORTH      CLOUDY    61  48  62 NE9       30.05S
BROKEN BOW     CLOUDY    70  53  54 SE13G24   30.02F
O`NEILL        CLOUDY    66  53  63 E10       30.06S
ORD            CLOUDY    66  53  63 SE8       30.03F
THEDFORD       PTSUNNY   71  54  54 SE13      30.03R
$$

NEZ041-046>049-061>064-073>077-083>087-142300-
SOUTH CENTRAL NEBRASKA

CITY           SKY/WX    TMP DP  RH WIND       PRES   REMARKS
GRAND ISLAND   PTSUNNY   71  52  50 S15       30.05S
AURORA         PTSUNNY   70  49  48 SE12      30.05S
HASTINGS       PTSUNNY   68  50  52 S14G20    30.04F
HEBRON         CLOUDY    70  49  48 SE9G17    30.05F
HOLDREGE       PTSUNNY   68  53  57 SE14G23   30.01F
KEARNEY *      PTSUNNY   70  54  56 SE18      30.04R
YORK           MOSUNNY   68  54  60 S10       30.05F
$$

NEZ011>018-030>034-042>045-142300-
NORTHEAST NEBRASKA

CITY           SKY/WX    TMP DP  RH WIND       PRES   REMARKS
NORFOLK        MOSUNNY   68  50  52 S7        30.07F
ALBION         SUNNY     69  50  50 S13       30.05F
BLAIR          MOSUNNY   71  51  48 S8        30.08F
COLUMBUS *     MOSUNNY   70  50  49 S10       30.07F
FREMONT        MOSUNNY   71  51  48 S6        30.08F
TEKAMAH        PTSUNNY   70  50  49 SE9       30.08F
WAYNE          PTSUNNY   67  50  56 S6        30.09F
$$

NEZ050>053-065>068-078-088>093-142300-
SOUTHEAST NEBRASKA

CITY           SKY/WX    TMP DP  RH WIND       PRES   REMARKS
LINCOLN        MOSUNNY   72  51  47 S13       30.07F
OMAHA EPPLEY   PTSUNNY   71  48  43 S15       30.08F
BEATRICE       PTSUNNY   71  52  49 S10       30.07F
FALLS CITY     SUNNY     73  54  51 S9        30.09F
NEBRASKA CITY  SUNNY     71  41  34 S7        30.09F
PLATTSMOUTH    SUNNY     71  47  42 SE8       30.09F
$$

NEZ044-045-051>053-067-142300-
OMAHA AREA

CITY           SKY/WX    TMP DP  RH WIND       PRES   REMARKS
OMAHA EPPLEY   PTSUNNY   71  48  43 S15       30.08F
BLAIR          MOSUNNY   71  51  48 S8        30.08F
FREMONT        MOSUNNY   71  51  48 S6        30.08F
PLATTSMOUTH    SUNNY     71  47  42 SE8       30.09F
WAHOO          FAIR      73  47  40 S10       30.07F
$$



USA.gov is the U.S. government's official web portal to all federal, state and local government web resources and services.